#timestamp,LO_Frequency,Hit,StdDev 
1623132015.7,286046998.7,N
1623132035.5,286046997.4,N
1623132055.4,286046994.9,Y
1623132075.2,286046995.6,P
1623132095.0,286046998.0,N
1623132095.9,286046998.0,N
1623132115.8,286046995.3,N
1623132135.6,286046997.6,N
1623132155.4,286046994.9,Y
1623132175.3,286047000.5,P
1623132195.1,286047000.2,N
1623132215.9,286047001.0,N
1623132235.7,286047000.8,N
1623132255.5,286046999.2,N
1623132275.4,286046996.6,N
1623132295.2,286046999.5,N
1623132315.0,286046998.8,N
1623132315.9,286046998.8,N
1623132335.8,286046999.3,N
1623132355.6,286046999.6,N
1623132375.5,286046999.3,N
1623132395.3,286046996.7,N
1623132415.1,286046998.0,N
1623132435.9,286046995.0,Y
1623132455.7,286046997.7,P
1623132475.5,286046996.9,P
1623132495.4,286046996.6,P
1623132515.2,286046997.3,N
1623132535.1,286046997.7,N
1623132536.0,286046997.7,N
1623132555.8,286046995.9,Y
1623132575.6,286046995.6,P
1623132595.5,286046995.0,P
1623132615.3,286046997.1,N
1623132635.1,286046996.7,Y
1623132655.9,286046999.7,P
1623132675.7,286047000.1,N
1623132695.6,286047000.3,N
1623132715.4,286047000.2,N
1623132735.2,286047000.2,N
1623132755.1,286047000.3,N
1623132756.0,286047000.3,N
1623132775.8,286047000.2,N
1623132795.6,286047001.1,N
1623132815.5,286047001.0,N
1623132835.3,286046999.7,N
1623132855.2,286047001.3,N
1623132875.9,286047003.8,Y
1623132895.7,286047003.2,P
1623132915.6,286047005.3,P
1623132935.4,286047007.1,P
1623132955.2,286047007.4,N
1623132975.1,286047004.9,N
1623132976.0,286047004.9,N
1623132995.8,286047004.8,N
1623133015.7,286047005.0,N
1623133035.5,286047004.9,N
1623133055.3,286047004.8,N
1623133075.2,286047005.4,N
1623133095.0,286047005.0,N
1623133095.9,286047005.0,N
1623133115.8,286047005.4,Y
1623133135.6,286047002.4,P
1623133155.4,286047002.0,N
1623133175.3,286047001.7,N
1623133195.1,286047003.8,Y
1623133215.8,286047000.2,P
1623133235.7,286046999.8,N
1623133255.5,286046998.8,N
1623133275.4,286047001.2,N
1623133295.2,286047000.1,N
1623133315.0,286047002.6,N
1623133315.9,286047002.6,N
1623133335.8,286047002.8,N
1623133355.6,286047002.0,N
1623133375.5,286046999.8,N
1623133395.3,286047002.4,N
1623133415.1,286047000.1,N
1623133435.9,286047002.5,N
1623133455.7,286047000.1,N
1623133475.6,286047004.3,Y
1623133495.4,286047001.4,P
1623133515.2,286047001.5,P
1623133535.1,286047002.5,P
1623133536.0,286047002.5,Y
1623133555.8,286047000.5,P
1623133575.7,286047000.8,N
1623133595.5,286046998.5,P
1623133615.4,286047001.0,N
1623133635.2,286047000.5,N
1623133655.0,286047001.1,N
1623133655.9,286047001.1,N
1623133675.8,286047000.9,N
1623133695.6,286047000.4,N
1623133715.5,286047002.8,Y
1623133735.3,286047000.8,P
1623133755.1,286047001.2,P
1623133775.9,286047001.1,P
1623133795.7,286046998.5,Y
1623133815.6,286047001.1,P
1623133835.4,286046999.1,P
1623133855.2,286047000.8,N
1623133875.1,286047002.3,N
1623133876.0,286047002.3,N
1623133895.8,286047002.5,N
1623133915.6,286047002.0,N
1623133935.5,286047003.2,N
1623133955.3,286047000.2,N
1623133975.2,286046999.8,N
1623133995.9,286046999.7,N
1623134015.7,286046999.7,N
1623134035.6,286047002.6,N
1623134055.4,286047000.4,N
1623134075.2,286047002.4,N
1623134095.1,286047000.3,N
1623134096.0,286047000.3,N
1623134115.8,286047000.6,N
1623134135.7,286047001.1,N
1623134155.5,286047001.0,N
1623134175.3,286047000.4,N
1623134195.2,286046998.2,N
1623134215.0,286047002.8,N
1623134215.9,286047002.8,N
1623134235.8,286047003.8,N
1623134255.6,286047003.2,N
1623134275.4,286047003.6,N
1623134295.3,286047002.0,N
1623134315.1,286047001.5,N
1623134316.0,286047001.5,N
1623134335.8,286047004.3,Y
1623134355.7,286047000.9,P
1623134375.5,286047002.2,P
1623134395.4,286047002.2,P
1623134415.2,286047002.2,Y
1623134435.0,286047000.6,P
1623134435.9,286047000.6,N
1623134455.8,286047000.5,N
1623134475.6,286046998.9,N
1623134495.4,286046998.8,N
1623134515.3,286046996.9,Y
1623134535.1,286046998.9,P
1623134555.9,286046999.3,N
1623134575.7,286046998.7,N
1623134595.5,286046997.5,Y
1623134615.4,286046999.6,P
1623134635.2,286046999.5,P
1623134655.0,286046999.5,P
1623134656.0,286046999.5,Y
1623134675.8,286046998.7,P
1623134695.6,286047000.7,N
1623134715.5,286047001.2,N
1623134735.3,286047000.3,N
1623134755.1,286047000.3,N
1623134775.9,286047002.4,N
1623134795.7,286047000.2,N
1623134815.6,286047001.2,N
1623134835.4,286047000.4,N
1623134855.2,286047000.0,N
1623134875.1,286047000.7,N
1623134876.0,286047000.7,N
1623134895.8,286047002.4,N
1623134915.6,286047000.3,N
1623134935.5,286047000.9,N
1623134955.3,286047002.3,N
1623134975.2,286047000.1,N
1623134995.9,286046998.6,N
1623135015.7,286047000.9,N
1623135035.6,286046999.7,N
1623135055.4,286047000.3,N
1623135075.2,286047000.7,N
1623135095.1,286047000.6,N
1623135096.0,286047000.6,N
1623135115.8,286046999.7,N
1623135135.7,286047000.9,N
1623135155.5,286047000.7,N
1623135175.3,286046998.1,N
1623135195.2,286047000.5,N
1623135215.0,286047000.1,N
1623135215.9,286047000.1,N
1623135235.7,286047001.1,N
1623135255.6,286047001.0,N
1623135275.4,286047000.4,N
1623135295.3,286047000.3,N
1623135315.1,286046999.9,N
1623135316.0,286046999.9,N
1623135335.8,286047000.5,N
1623135355.7,286047000.6,N
1623135375.5,286047000.0,N
1623135395.4,286047000.3,N
1623135415.2,286047000.6,N
1623135435.0,286047002.8,Y
1623135435.9,286047002.8,P
1623135455.8,286047000.4,N
1623135475.6,286047000.9,N
1623135495.5,286046999.8,N
1623135515.3,286047000.1,N
1623135535.1,286047001.9,N
1623135555.9,286047000.8,N
1623135575.7,286047000.0,N
1623135595.6,286047000.0,N
